| time (UTC) | temp F | wind direction | speed MPH | gust MPH | rain 1hr in | rain 24hr in | rain mn in | humidity % | barometer mb |
| 20260510221102 | 53 | 0.0 | 0.0 | 0.00 | 0.00 | 0.00 | 84 | 1012.6 | |
| 20260510220602 | 53 | 0.0 | 0.0 | 0.00 | 0.00 | 0.00 | 82 | 1012.5 | |
| 20260510215602 | 53 | 0.0 | 0.0 | 0.00 | 0.00 | 0.00 | 82 | 1012.7 | |
| 20260510215101 | 53 | 0.0 | 0.0 | 0.00 | 0.00 | 0.00 | 82 | 1012.5 | |
| 20260510214603 | 54 | 0.0 | 0.0 | 0.00 | 0.00 | 0.00 | 82 | 1012.6 | |
| 20260510214102 | 53 | 0.0 | 0.0 | 0.00 | 0.00 | 0.00 | 84 | 1012.5 | |
| 20260510213603 | 54 | 0.0 | 0.0 | 0.00 | 0.00 | 0.00 | 83 | 1012.7 | |
| 20260510213102 | 54 | 0.0 | 0.0 | 0.00 | 0.00 | 0.00 | 81 | 1012.9 | |
| 20260510212603 | 54 | 0.0 | 0.0 | 0.00 | 0.00 | 0.00 | 83 | 1012.7 | |
| 20260510212103 | 54 | 0.0 | 0.0 | 0.00 | 0.00 | 0.00 | 84 | 1012.7 | |
| 20260510211602 | 54 | 0.0 | 0.0 | 0.00 | 0.00 | 0.00 | 86 | 1012.8 | |
| 20260510211102 | 53 | 0.0 | 0.0 | 0.00 | 0.00 | 0.00 | 87 | 1012.8 | |
| 20260510205602 | 53 | 0.0 | 0.0 | 0.00 | 0.00 | 0.00 | 85 | 1013.6 | |
| 20260510205103 | 53 | 0.0 | 0.0 | 0.00 | 0.00 | 0.00 | 83 | 1013.5 | |
| 20260510204603 | 53 | 0.0 | 0.0 | 0.00 | 0.00 | 0.00 | 81 | 1013.4 | |
| 20260510204103 | 53 | 0.0 | 0.0 | 0.00 | 0.00 | 0.00 | 81 | 1013.4 | |
| 20260510203602 | 54 | 0.0 | 0.0 | 0.00 | 0.00 | 0.00 | 82 | 1013.2 | |
| 20260510203102 | 54 | 0.0 | 0.0 | 0.00 | 0.00 | 0.00 | 81 | 1012.9 | |
| 20260510202102 | 54 | 0.0 | 0.0 | 0.00 | 0.00 | 0.00 | 83 | 1012.7 | |
| 20260510201602 | 54 | 0.0 | 0.0 | 0.00 | 0.00 | 0.00 | 83 | 1012.5 | |
| 20260510201102 | 55 | 0.0 | 0.0 | 0.00 | 0.00 | 0.00 | 83 | 1012.5 | |
| 20260510200602 | 55 | 0.0 | 0.0 | 0.00 | 0.00 | 0.00 | 87 | 1012.6 | |
| 20260510195103 | 55 | 0.0 | 0.0 | 0.00 | 0.00 | 0.00 | 87 | 1012.7 | |
| 20260510194602 | 55 | 0.0 | 0.0 | 0.00 | 0.00 | 0.00 | 86 | 1012.6 | |
| 20260510194103 | 56 | 0.0 | 0.0 | 0.00 | 0.00 | 0.00 | 78 | 1012.5 | |
| 20260510193602 | 55 | 0.0 | 0.0 | 0.00 | 0.00 | 0.00 | 80 | 1012.9 | |
| 20260510193102 | 55 | 0.0 | 0.0 | 0.00 | 0.00 | 0.00 | 81 | 1012.7 | |
| 20260510192602 | 55 | 0.0 | 0.0 | 0.00 | 0.00 | 0.00 | 80 | 1012.6 | |
| 20260510192103 | 56 | 0.0 | 0.0 | 0.00 | 0.00 | 0.00 | 77 | 1012.3 | |
| 20260510191602 | 56 | 0.0 | 0.0 | 0.00 | 0.00 | 0.00 | 75 | 1012.3 | |
| 20260510191102 | 56 | 0.0 | 0.0 | 0.00 | 0.00 | 0.00 | 76 | 1012.2 | |
| 20260510190603 | 57 | 0.0 | 0.0 | 0.00 | 0.00 | 0.00 | 76 | 1012.2 | |
| 20260510190103 | 57 | 0.0 | 0.0 | 0.00 | 0.00 | 0.00 | 78 | 1012.3 | |
| 20260510185602 | 56 | 0.0 | 0.0 | 0.00 | 0.00 | 0.00 | 78 | 1012.3 | |
| 20260510185103 | 56 | 0.0 | 0.0 | 0.00 | 0.00 | 0.00 | 81 | 1012.2 | |
| 20260510184602 | 56 | 0.0 | 0.0 | 0.00 | 0.00 | 0.00 | 83 | 1011.9 | |
| 20260510183103 | 56 | 0.0 | 0.0 | 0.00 | 0.00 | 0.00 | 81 | 1012.2 | |
| 20260510182602 | 57 | 0.0 | 0.0 | 0.00 | 0.00 | 0.00 | 77 | 1012.3 | |
| 20260510182103 | 57 | 0.0 | 0.0 | 0.00 | 0.00 | 0.00 | 72 | 1012.2 | |
| 20260510181602 | 57 | 0.0 | 0.0 | 0.00 | 0.00 | 0.00 | 72 | 1012.1 | |
| 20260510181102 | 58 | 0.0 | 0.0 | 0.00 | 0.00 | 0.00 | 73 | 1011.8 | |
| 20260510180103 | 57 | 0.0 | 0.0 | 0.00 | 0.00 | 0.00 | 67 | 1011.6 | |
| 20260510175603 | 58 | 0.0 | 0.0 | 0.00 | 0.00 | 0.00 | 69 | 1011.4 | |
| 20260510175102 | 58 | 0.0 | 0.0 | 0.00 | 0.00 | 0.00 | 72 | 1011.2 | |
| 20260510174602 | 59 | 0.0 | 0.0 | 0.00 | 0.00 | 0.00 | 64 | 1011.1 | |
| 20260510174102 | 59 | 0.0 | 0.0 | 0.00 | 0.00 | 0.00 | 53 | 1011.2 | |
| 20260510173603 | 60 | 0.0 | 0.0 | 0.00 | 0.00 | 0.00 | 49 | 1011.1 | |
| 20260510173103 | 61 | 0.0 | 0.0 | 0.00 | 0.00 | 0.00 | 44 | 1010.8 | |
| 20260510172603 | 61 | 0.0 | 0.0 | 0.00 | 0.00 | 0.00 | 41 | 1010.3 | |
| 20260510172102 | 62 | 0.0 | 0.0 | 0.00 | 0.00 | 0.00 | 40 | 1010.1 | |
| 20260510171602 | 62 | 0.0 | 0.0 | 0.00 | 0.00 | 0.00 | 39 | 1010.0 | |
| 20260510171102 | 62 | 0.0 | 0.0 | 0.00 | 0.00 | 0.00 | 39 | 1009.9 | |
| 20260510170602 | 62 | 0.0 | 0.0 | 0.00 | 0.00 | 0.00 | 39 | 1010.1 | |
| 20260510165603 | 63 | 0.0 | 0.0 | 0.00 | 0.00 | 0.00 | 39 | 1009.7 | |
| 20260510165102 | 63 | 0.0 | 0.0 | 0.00 | 0.00 | 0.00 | 38 | 1009.6 | |
| 20260510164602 | 63 | 0.0 | 0.0 | 0.00 | 0.00 | 0.00 | 38 | 1009.6 | |
| 20260510164102 | 64 | 0.0 | 0.0 | 0.00 | 0.00 | 0.00 | 38 | 1009.5 | |
| 20260510163602 | 64 | 0.0 | 0.0 | 0.00 | 0.00 | 0.00 | 38 | 1009.5 | |
| 20260510163102 | 63 | 0.0 | 0.0 | 0.00 | 0.00 | 0.00 | 38 | 1009.5 | |
| 20260510162602 | 64 | 0.0 | 0.0 | 0.00 | 0.00 | 0.00 | 37 | 1009.3 | |
| 20260510162102 | 65 | 0.0 | 0.0 | 0.00 | 0.00 | 0.00 | 37 | 1009.3 | |
| 20260510161603 | 66 | 0.0 | 0.0 | 0.00 | 0.00 | 0.00 | 36 | 1009.1 | |
| 20260510161102 | 66 | 0.0 | 0.0 | 0.00 | 0.00 | 0.00 | 36 | 1009.2 | |
| 20260510160603 | 65 | 0.0 | 0.0 | 0.00 | 0.00 | 0.00 | 36 | 1009.3 | |
| 20260510155603 | 65 | 0.0 | 0.0 | 0.00 | 0.00 | 0.00 | 36 | 1009.2 | |
| 20260510155103 | 64 | 0.0 | 0.0 | 0.00 | 0.00 | 0.00 | 37 | 1009.2 | |
| 20260510154603 | 65 | 0.0 | 0.0 | 0.00 | 0.00 | 0.00 | 36 | 1009.1 | |
| 20260510154103 | 65 | 0.0 | 0.0 | 0.00 | 0.00 | 0.00 | 36 | 1009.2 | |
| 20260510153602 | 66 | 0.0 | 0.0 | 0.00 | 0.00 | 0.00 | 36 | 1009.2 | |
| 20260510153103 | 66 | 0.0 | 0.0 | 0.00 | 0.00 | 0.00 | 36 | 1009.2 | |
| 20260510152602 | 65 | 0.0 | 0.0 | 0.00 | 0.00 | 0.00 | 36 | 1009.2 | |
| 20260510152102 | 65 | 0.0 | 0.0 | 0.00 | 0.00 | 0.00 | 36 | 1009.3 | |
| 20260510151602 | 64 | 0.0 | 0.0 | 0.00 | 0.00 | 0.00 | 37 | 1009.4 | |
| 20260510151103 | 64 | 0.0 | 0.0 | 0.00 | 0.00 | 0.00 | 37 | 1009.5 | |
| 20260510150602 | 64 | 0.0 | 0.0 | 0.00 | 0.00 | 0.00 | 37 | 1009.6 | |
| 20260510150103 | 63 | 0.0 | 0.0 | 0.00 | 0.00 | 0.00 | 37 | 1009.6 | |
| 20260510145103 | 62 | 0.0 | 0.0 | 0.00 | 0.00 | 0.00 | 37 | 1009.9 | |
| 20260510144603 | 62 | 0.0 | 0.0 | 0.00 | 0.00 | 0.00 | 38 | 1010.0 | |
| 20260510144102 | 62 | 0.0 | 0.0 | 0.00 | 0.00 | 0.00 | 38 | 1010.1 | |
| 20260510143602 | 62 | 0.0 | 0.0 | 0.00 | 0.00 | 0.00 | 38 | 1010.2 | |
| 20260510143102 | 63 | 0.0 | 0.0 | 0.00 | 0.00 | 0.00 | 38 | 1010.2 | |
| 20260510142602 | 63 | 0.0 | 0.0 | 0.00 | 0.00 | 0.00 | 37 | 1010.1 | |
| 20260510141602 | 62 | 0.0 | 0.0 | 0.00 | 0.00 | 0.00 | 37 | 1010.2 | |
| 20260510141102 | 62 | 0.0 | 0.0 | 0.00 | 0.00 | 0.00 | 41 | 1010.3 | |
| 20260510135602 | 62 | 0.0 | 0.0 | 0.00 | 0.00 | 0.00 | 40 | 1010.3 | |
| 20260510135103 | 62 | 0.0 | 0.0 | 0.00 | 0.00 | 0.00 | 39 | 1010.4 | |
| 20260510134603 | 62 | 0.0 | 0.0 | 0.00 | 0.00 | 0.00 | 41 | 1010.4 | |
| 20260510134103 | 62 | 0.0 | 0.0 | 0.00 | 0.00 | 0.00 | 41 | 1010.5 | |
| 20260510133602 | 62 | 0.0 | 0.0 | 0.00 | 0.00 | 0.00 | 40 | 1010.4 | |
| 20260510133103 | 63 | 0.0 | 0.0 | 0.00 | 0.00 | 0.00 | 42 | 1010.5 | |
| 20260510132102 | 61 | 0.0 | 0.0 | 0.00 | 0.00 | 0.00 | 43 | 1010.7 | |
| 20260510131602 | 61 | 0.0 | 0.0 | 0.00 | 0.00 | 0.00 | 44 | 1010.8 | |
| 20260510131102 | 61 | 0.0 | 0.0 | 0.00 | 0.00 | 0.00 | 44 | 1010.8 | |
| 20260510130602 | 61 | 0.0 | 0.0 | 0.00 | 0.00 | 0.00 | 45 | 1010.8 | |
| 20260510125602 | 61 | 0.0 | 0.0 | 0.00 | 0.00 | 0.00 | 44 | 1010.7 | |
| 20260510125102 | 62 | 0.0 | 0.0 | 0.00 | 0.00 | 0.00 | 46 | 1010.6 | |
| 20260510124603 | 62 | 0.0 | 0.0 | 0.00 | 0.00 | 0.00 | 46 | 1010.8 | |
| 20260510124102 | 61 | 0.0 | 0.0 | 0.00 | 0.00 | 0.00 | 47 | 1011.0 | |
| 20260510123602 | 61 | 0.0 | 0.0 | 0.00 | 0.00 | 0.00 | 47 | 1011.0 | |
| 20260510123102 | 60 | 0.0 | 0.0 | 0.00 | 0.00 | 0.00 | 48 | 1011.2 | |
| 20260510122603 | 60 | 0.0 | 0.0 | 0.00 | 0.00 | 0.00 | 48 | 1011.2 | |
| 20260510122102 | 60 | 0.0 | 0.0 | 0.00 | 0.00 | 0.00 | 48 | 1011.2 | |
| 20260510121602 | 60 | 0.0 | 0.0 | 0.00 | 0.00 | 0.00 | 49 | 1011.2 | |
| 20260510121102 | 60 | 0.0 | 0.0 | 0.00 | 0.00 | 0.00 | 51 | 1011.4 | |
| 20260510120603 | 60 | 0.0 | 0.0 | 0.00 | 0.00 | 0.00 | 51 | 1011.4 | |
| 20260510115602 | 60 | 0.0 | 0.0 | 0.00 | 0.00 | 0.00 | 52 | 1011.5 | |
| 20260510115103 | 60 | 0.0 | 0.0 | 0.00 | 0.00 | 0.00 | 52 | 1011.6 | |
| 20260510114603 | 60 | 0.0 | 0.0 | 0.00 | 0.00 | 0.00 | 52 | 1011.6 | |
| 20260510114102 | 60 | 0.0 | 0.0 | 0.00 | 0.00 | 0.00 | 53 | 1011.7 | |
| 20260510113603 | 60 | 0.0 | 0.0 | 0.00 | 0.00 | 0.00 | 53 | 1011.7 | |
| 20260510112603 | 60 | 0.0 | 0.0 | 0.00 | 0.00 | 0.00 | 55 | 1011.7 | |
| 20260510112103 | 60 | 0.0 | 0.0 | 0.00 | 0.00 | 0.00 | 56 | 1011.7 | |
| 20260510111601 | 60 | 0.0 | 0.0 | 0.00 | 0.00 | 0.00 | 57 | 1011.7 | |
| 20260510111103 | 60 | 0.0 | 0.0 | 0.00 | 0.00 | 0.00 | 56 | 1011.7 | |
| 20260510110602 | 60 | 0.0 | 0.0 | 0.00 | 0.00 | 0.00 | 57 | 1011.6 | |
| 20260510105603 | 61 | 0.0 | 0.0 | 0.00 | 0.00 | 0.00 | 56 | 1011.6 | |
| 20260510105102 | 61 | 0.0 | 0.0 | 0.00 | 0.00 | 0.00 | 55 | 1011.7 | |
| 20260510104602 | 60 | 0.0 | 0.0 | 0.00 | 0.00 | 0.00 | 54 | 1011.7 | |
| 20260510104103 | 60 | 0.0 | 0.0 | 0.00 | 0.00 | 0.00 | 55 | 1011.8 | |
| 20260510103602 | 59 | 0.0 | 0.0 | 0.00 | 0.00 | 0.00 | 57 | 1011.8 | |
| 20260510103102 | 59 | 0.0 | 0.0 | 0.00 | 0.00 | 0.00 | 58 | 1011.8 | |
| 20260510102602 | 59 | 0.0 | 0.0 | 0.00 | 0.00 | 0.00 | 58 | 1011.9 | |
| 20260510102103 | 58 | 0.0 | 0.0 | 0.00 | 0.00 | 0.00 | 59 | 1011.9 | |
| 20260510101602 | 58 | 0.0 | 0.0 | 0.00 | 0.00 | 0.00 | 57 | 1012.0 | |
| 20260510101103 | 58 | 0.0 | 0.0 | 0.00 | 0.00 | 0.00 | 58 | 1012.0 | |
| 20260510100603 | 58 | 0.0 | 0.0 | 0.00 | 0.00 | 0.00 | 59 | 1012.0 | |
| 20260510095602 | 58 | 0.0 | 0.0 | 0.00 | 0.00 | 0.00 | 60 | 1012.1 | |
| 20260510094603 | 58 | 0.0 | 0.0 | 0.00 | 0.00 | 0.00 | 62 | 1012.1 | |
| 20260510094103 | 58 | 0.0 | 0.0 | 0.00 | 0.00 | 0.00 | 61 | 1012.1 | |
| 20260510093103 | 57 | 0.0 | 0.0 | 0.00 | 0.00 | 0.00 | 61 | 1012.1 | |
| 20260510092602 | 58 | 0.0 | 0.0 | 0.00 | 0.00 | 0.00 | 59 | 1012.1 | |
| 20260510091102 | 57 | 0.0 | 0.0 | 0.00 | 0.00 | 0.00 | 63 | 1012.1 | |
| 20260510090603 | 57 | 0.0 | 0.0 | 0.00 | 0.00 | 0.00 | 65 | 1012.1 | |
| 20260510090103 | 56 | 0.0 | 0.0 | 0.00 | 0.00 | 0.00 | 65 | 1012.1 | |
| 20260510085603 | 56 | 0.0 | 0.0 | 0.00 | 0.00 | 0.00 | 66 | 1012.1 | |
| 20260510085102 | 55 | 0.0 | 0.0 | 0.00 | 0.00 | 0.00 | 66 | 1012.2 | |
| 20260510084603 | 55 | 0.0 | 0.0 | 0.00 | 0.00 | 0.00 | 69 | 1012.2 | |
| 20260510083603 | 55 | 0.0 | 0.0 | 0.00 | 0.00 | 0.00 | 70 | 1012.3 | |
| 20260510083103 | 54 | 0.0 | 0.0 | 0.00 | 0.00 | 0.00 | 72 | 1012.3 | |
| 20260510082603 | 55 | 0.0 | 0.0 | 0.00 | 0.00 | 0.00 | 71 | 1012.1 | |
| 20260510082103 | 54 | 0.0 | 0.0 | 0.00 | 0.00 | 0.00 | 72 | 1012.1 | |
| 20260510081602 | 54 | 0.0 | 0.0 | 0.00 | 0.00 | 0.00 | 72 | 1012.1 | |
| 20260510075602 | 55 | 0.0 | 0.0 | 0.00 | 0.00 | 0.00 | 70 | 1012.1 | |
| 20260510075101 | 54 | 0.0 | 0.0 | 0.00 | 0.00 | 0.00 | 72 | 1012.2 | |
| 20260510074603 | 55 | 0.0 | 0.0 | 0.00 | 0.00 | 0.00 | 71 | 1012.2 | |
| 20260510074102 | 55 | 0.0 | 0.0 | 0.00 | 0.00 | 0.00 | 69 | 1012.3 | |
| 20260510073602 | 55 | 0.0 | 0.0 | 0.00 | 0.00 | 0.00 | 69 | 1012.3 | |
| 20260510073102 | 54 | 0.0 | 0.0 | 0.00 | 0.00 | 0.00 | 70 | 1012.3 | |
| 20260510072602 | 54 | 0.0 | 0.0 | 0.00 | 0.00 | 0.00 | 70 | 1012.3 | |
| 20260510072102 | 54 | 0.0 | 0.0 | 0.00 | 0.00 | 0.00 | 72 | 1012.3 | |
| 20260510071601 | 54 | 0.0 | 0.0 | 0.00 | 0.00 | 0.00 | 71 | 1012.3 | |
| 20260510071103 | 54 | 0.0 | 0.0 | 0.00 | 0.00 | 0.00 | 71 | 1012.3 | |
| 20260510070608 | 54 | 0.0 | 0.0 | 0.00 | 0.00 | 0.00 | 73 | 1012.4 | |
| 20260510065603 | 54 | 0.0 | 0.0 | 0.00 | 0.00 | 0.00 | 72 | 1012.4 | |
| 20260510065103 | 54 | 0.0 | 0.0 | 0.00 | 0.00 | 0.00 | 74 | 1012.5 | |
| 20260510064603 | 54 | 0.0 | 0.0 | 0.00 | 0.00 | 0.00 | 76 | 1012.5 | |
| 20260510064102 | 53 | 0.0 | 0.0 | 0.00 | 0.00 | 0.00 | 74 | 1012.6 | |
| 20260510063603 | 53 | 0.0 | 0.0 | 0.00 | 0.00 | 0.00 | 76 | 1012.6 | |
| 20260510063103 | 53 | 0.0 | 0.0 | 0.00 | 0.00 | 0.00 | 78 | 1012.5 | |
| 20260510062603 | 53 | 0.0 | 0.0 | 0.00 | 0.00 | 0.00 | 79 | 1012.5 | |
| 20260510062103 | 53 | 0.0 | 0.0 | 0.00 | 0.00 | 0.00 | 79 | 1012.5 | |
| 20260510061603 | 53 | 0.0 | 0.0 | 0.00 | 0.00 | 0.00 | 81 | 1012.5 | |
| 20260510061102 | 53 | 0.0 | 0.0 | 0.00 | 0.00 | 0.00 | 83 | 1012.6 | |
| 20260510060603 | 52 | 0.0 | 0.0 | 0.00 | 0.00 | 0.00 | 85 | 1012.7 | |
| 20260510055602 | 51 | 0.0 | 0.0 | 0.00 | 0.00 | 0.00 | 90 | 1012.8 | |
| 20260510055102 | 52 | 0.0 | 0.0 | 0.00 | 0.00 | 0.00 | 87 | 1012.8 | |
| 20260510054603 | 52 | 0.0 | 0.0 | 0.00 | 0.00 | 0.00 | 89 | 1012.8 | |
| 20260510054102 | 51 | 0.0 | 0.0 | 0.00 | 0.00 | 0.00 | 92 | 1012.7 | |
| 20260510053602 | 51 | 0.0 | 0.0 | 0.00 | 0.00 | 0.00 | 94 | 1012.7 | |
| 20260510053102 | 51 | 0.0 | 0.0 | 0.00 | 0.00 | 0.00 | 94 | 1012.6 | |
| 20260510052607 | 50 | 0.0 | 0.0 | 0.00 | 0.00 | 0.00 | 95 | 1012.5 | |
| 20260510052102 | 50 | 0.0 | 0.0 | 0.00 | 0.00 | 0.00 | 94 | 1012.4 | |
| 20260510051603 | 50 | 0.0 | 0.0 | 0.00 | 0.00 | 0.00 | 93 | 1012.5 | |
| 20260510051103 | 51 | 0.0 | 0.0 | 0.00 | 0.00 | 0.00 | 92 | 1012.5 | |
| 20260510050603 | 50 | 0.0 | 0.0 | 0.00 | 0.00 | 0.00 | 93 | 1012.5 | |
| 20260510045602 | 51 | 0.0 | 0.0 | 0.00 | 0.00 | 0.00 | 87 | 1012.5 | |
| 20260510045102 | 52 | 0.0 | 0.0 | 0.00 | 0.00 | 0.00 | 82 | 1012.5 | |
| 20260510044602 | 52 | 0.0 | 0.0 | 0.00 | 0.00 | 0.00 | 83 | 1012.4 | |
| 20260510044103 | 52 | 0.0 | 0.0 | 0.00 | 0.00 | 0.00 | 84 | 1012.3 | |
| 20260510043603 | 52 | 0.0 | 0.0 | 0.00 | 0.00 | 0.00 | 83 | 1012.4 | |
| 20260510043103 | 52 | 0.0 | 0.0 | 0.00 | 0.00 | 0.00 | 83 | 1012.4 | |
| 20260510042603 | 53 | 0.0 | 0.0 | 0.00 | 0.00 | 0.00 | 83 | 1012.4 | |
| 20260510042103 | 52 | 0.0 | 0.0 | 0.00 | 0.00 | 0.00 | 86 | 1012.4 | |
| 20260510041102 | 53 | 0.0 | 0.0 | 0.00 | 0.00 | 0.00 | 83 | 1012.4 | |
| 20260510040602 | 53 | 0.0 | 0.0 | 0.00 | 0.00 | 0.00 | 82 | 1012.5 | |
| 20260510040104 | 53 | 0.0 | 0.0 | 0.00 | 0.00 | 0.00 | 84 | 1012.5 | |
| 20260510035602 | 53 | 0.0 | 0.0 | 0.00 | 0.00 | 0.00 | 83 | 1012.7 | |
| 20260510034602 | 53 | 0.0 | 0.0 | 0.00 | 0.00 | 0.00 | 85 | 1012.6 | |
| 20260510034103 | 53 | 0.0 | 0.0 | 0.00 | 0.00 | 0.00 | 85 | 1012.7 | |
| 20260510033602 | 53 | 0.0 | 0.0 | 0.00 | 0.00 | 0.00 | 84 | 1012.7 | |
| 20260510033103 | 53 | 0.0 | 0.0 | 0.00 | 0.00 | 0.00 | 84 | 1012.7 | |
| 20260510032603 | 52 | 0.0 | 0.0 | 0.00 | 0.00 | 0.00 | 86 | 1012.8 | |
| 20260510032102 | 53 | 0.0 | 0.0 | 0.00 | 0.00 | 0.00 | 85 | 1012.8 | |
| 20260510031602 | 53 | 0.0 | 0.0 | 0.00 | 0.00 | 0.00 | 85 | 1012.9 | |
| 20260510031102 | 53 | 0.0 | 0.0 | 0.00 | 0.00 | 0.00 | 85 | 1012.9 | |
| 20260510030602 | 53 | 0.0 | 0.0 | 0.00 | 0.00 | 0.00 | 85 | 1012.9 | |
| 20260510025602 | 52 | 0.0 | 0.0 | 0.00 | 0.00 | 0.00 | 88 | 1012.9 | |
| 20260510025103 | 52 | 0.0 | 0.0 | 0.00 | 0.00 | 0.00 | 85 | 1012.9 | |
| 20260510024603 | 53 | 0.0 | 0.0 | 0.00 | 0.00 | 0.00 | 86 | 1012.8 | |
| 20260510024103 | 52 | 0.0 | 0.0 | 0.00 | 0.00 | 0.00 | 87 | 1012.8 | |
| 20260510023602 | 52 | 0.0 | 0.0 | 0.00 | 0.00 | 0.00 | 88 | 1012.8 | |
| 20260510023103 | 53 | 0.0 | 0.0 | 0.00 | 0.00 | 0.00 | 87 | 1012.8 | |
| 20260510022603 | 53 | 0.0 | 0.0 | 0.00 | 0.00 | 0.00 | 87 | 1012.9 | |
| 20260510022102 | 53 | 0.0 | 0.0 | 0.00 | 0.00 | 0.00 | 86 | 1012.9 | |
| 20260510021602 | 53 | 0.0 | 0.0 | 0.00 | 0.00 | 0.00 | 85 | 1012.9 | |
| 20260510021102 | 52 | 0.0 | 0.0 | 0.00 | 0.00 | 0.00 | 86 | 1012.9 | |
| 20260510020602 | 52 | 0.0 | 0.0 | 0.00 | 0.00 | 0.00 | 85 | 1012.9 | |
| 20260510015602 | 53 | 0.0 | 0.0 | 0.00 | 0.00 | 0.00 | 85 | 1012.7 | |
| 20260510015102 | 52 | 0.0 | 0.0 | 0.00 | 0.00 | 0.00 | 86 | 1012.6 | |
| 20260510014603 | 53 | 0.0 | 0.0 | 0.00 | 0.00 | 0.00 | 86 | 1012.6 | |
| 20260510014103 | 53 | 0.0 | 0.0 | 0.00 | 0.00 | 0.00 | 86 | 1012.6 | |
| 20260510013601 | 53 | 0.0 | 0.0 | 0.00 | 0.00 | 0.00 | 89 | 1012.6 | |
| 20260510013102 | 53 | 0.0 | 0.0 | 0.00 | 0.00 | 0.00 | 87 | 1012.7 | |
| 20260510012602 | 53 | 0.0 | 0.0 | 0.00 | 0.00 | 0.00 | 84 | 1012.7 | |
| 20260510012102 | 53 | 0.0 | 0.0 | 0.00 | 0.00 | 0.00 | 85 | 1012.7 | |
| 20260510011603 | 52 | 0.0 | 0.0 | 0.00 | 0.00 | 0.00 | 87 | 1012.7 | |
| 20260510011102 | 52 | 0.0 | 0.0 | 0.00 | 0.00 | 0.00 | 88 | 1012.7 | |
| 20260510010602 | 52 | 0.0 | 0.0 | 0.00 | 0.00 | 0.00 | 87 | 1012.7 | |
| 20260510005102 | 53 | 0.0 | 0.0 | 0.00 | 0.00 | 0.00 | 88 | 1012.6 | |
| 20260510004603 | 53 | 0.0 | 0.0 | 0.00 | 0.00 | 0.00 | 86 | 1012.7 | |
| 20260510004102 | 53 | 0.0 | 0.0 | 0.00 | 0.00 | 0.00 | 87 | 1013.0 | |
| 20260510003603 | 53 | 0.0 | 0.0 | 0.00 | 0.00 | 0.00 | 87 | 1013.0 | |
| 20260510003102 | 53 | 0.0 | 0.0 | 0.00 | 0.00 | 0.00 | 87 | 1013.0 | |
| 20260510002602 | 52 | 0.0 | 0.0 | 0.00 | 0.00 | 0.00 | 89 | 1013.0 | |
| 20260510002103 | 51 | 0.0 | 0.0 | 0.00 | 0.00 | 0.00 | 92 | 1012.9 | |
| 20260510001602 | 52 | 0.0 | 0.0 | 0.00 | 0.00 | 0.00 | 90 | 1012.9 | |
| 20260510001102 | 52 | 0.0 | 0.0 | 0.00 | 0.00 | 0.00 | 89 | 1012.9 | |
| 20260510000603 | 52 | 0.0 | 0.0 | 0.00 | 0.00 | 0.00 | 90 | 1013.0 | |
| 20260509235602 | 52 | 0.0 | 0.0 | 0.00 | 0.00 | 0.00 | 89 | 1013.0 | |
| 20260509235102 | 52 | 0.0 | 0.0 | 0.00 | 0.00 | 0.00 | 90 | 1013.1 | |
| 20260509234602 | 53 | 0.0 | 0.0 | 0.00 | 0.00 | 0.00 | 85 | 1013.1 | |
| 20260509234102 | 53 | 0.0 | 0.0 | 0.00 | 0.00 | 0.00 | 83 | 1013.1 | |
| 20260509233603 | 53 | 0.0 | 0.0 | 0.00 | 0.00 | 0.00 | 84 | 1013.2 | |
| 20260509233103 | 53 | 0.0 | 0.0 | 0.00 | 0.00 | 0.00 | 82 | 1013.2 | |
| 20260509232602 | 53 | 0.0 | 0.0 | 0.00 | 0.00 | 0.00 | 85 | 1013.1 | |
| 20260509232103 | 53 | 0.0 | 0.0 | 0.00 | 0.00 | 0.00 | 87 | 1013.3 | |
| 20260509231602 | 52 | 0.0 | 0.0 | 0.00 | 0.00 | 0.00 | 89 | 1013.3 | |
| 20260509231102 | 52 | 0.0 | 0.0 | 0.00 | 0.00 | 0.00 | 90 | 1013.4 | |
| 20260509230602 | 52 | 0.0 | 0.0 | 0.00 | 0.00 | 0.00 | 90 | 1013.5 | |
| 20260509225602 | 52 | 0.0 | 0.0 | 0.00 | 0.00 | 0.00 | 88 | 1013.5 | |
| 20260509225102 | 52 | 0.0 | 0.0 | 0.00 | 0.00 | 0.00 | 89 | 1013.5 | |
| 20260509224602 | 52 | 0.0 | 0.0 | 0.00 | 0.00 | 0.00 | 90 | 1013.5 | |
| 20260509224102 | 52 | 0.0 | 0.0 | 0.00 | 0.00 | 0.00 | 89 | 1013.6 | |
| 20260509223602 | 53 | 0.0 | 0.0 | 0.00 | 0.00 | 0.00 | 88 | 1013.6 | |
| 20260509223102 | 53 | 0.0 | 0.0 | 0.00 | 0.00 | 0.00 | 86 | 1013.5 | |
| 20260509222603 | 54 | 0.0 | 0.0 | 0.00 | 0.00 | 0.00 | 85 | 1013.5 | |
| 20260509222102 | 53 | 0.0 | 0.0 | 0.00 | 0.00 | 0.00 | 87 | 1013.5 | |
| 20260509221602 | 53 | 0.0 | 0.0 | 0.00 | 0.00 | 0.00 | 87 | 1013.5 |